Home   Weather   Altus   Past weeks
Flag for USA

Past Weather in Altus, Oklahoma, USA — Yesterday and Last 2 Weeks

Now
38 °F

Sunny.


Feels Like: 34 °F
Forecast: 71 / 38 °F
Wind: 6 mph from Northwest

Location: Altus Air Force Base

Current Time: Mar 21, 2019 at 9:12:13 am

Latest Report: Mar 21, 2019 at 7:56 am


Visibility: 10 mi

Pressure: 30.22 "Hg

Humidity: 74%

Dew Point: 31 °F

Location of AltusLocation

Past Weather in Altus — Graph

°F

Altus Temperature Yesterday

Maximum temperature yesterday: 67 °F (at 5:56 pm)
Minimum temperature yesterday: 43 °F (at 10:56 pm)
Average temperature yesterday: 55 °F

High & Low Weather Summary for the Past Weeks

 TemperatureHumidityPressure
High72 °F (Mar 19, 3:56 pm)100% (Mar 10, 8:26 pm)30.51 "Hg (Mar 10, 8:26 pm)
Low20 °F (Mar 6, 6:56 am)17% (Mar 18, 4:56 pm)29.37 "Hg (Mar 13, 5:25 am)
Average49 °F65%30.10 "Hg
* Reported Mar 6 6:56 am — Mar 21 7:56 am, Altus. Weather by CustomWeather, © 2019

Note: Actual official high and low records may vary slightly from our data, if they occured in-between our weather recording intervals... More about our weather records

Advertising

Altus Weather History for the Previous 24 Hours

Scroll right to see more
 ConditionsComfort  
Time TempWeatherWind HumidityBarometerVisibility
7:56 am
Thu, Mar 21
38 °FSunny.6 mph74%30.22 "Hg10 mi
6:56 am40 °FClear.No wind67%30.21 "Hg10 mi
5:56 am42 °FClear.7 mph62%30.18 "Hg10 mi
4:56 am43 °FClear.6 mph62%30.17 "Hg10 mi
3:56 am45 °FClear.7 mph56%30.18 "Hg10 mi
2:56 am47 °FClear.7 mph50%30.19 "Hg10 mi
1:56 am40 °FClear.No wind76%30.20 "Hg10 mi
12:56 am39 °FClear.3 mph75%30.21 "Hg10 mi
11:56 pm
Wed, Mar 20
47 °FClear.3 mph52%30.21 "Hg10 mi
10:56 pm43 °FClear.5 mph61%30.22 "Hg10 mi
9:56 pm51 °FClear.No wind46%30.21 "Hg10 mi
8:56 pm59 °FClear.6 mph27%30.19 "Hg10 mi
7:56 pm62 °FClear.6 mph22%30.18 "Hg10 mi
6:56 pm66 °FSunny.7 mph18%30.18 "Hg10 mi
5:56 pm67 °FSunny.7 mph19%30.18 "Hg10 mi
4:56 pm67 °FSunny.16 mph21%30.19 "Hg10 mi
3:56 pm66 °FSunny.10 mph24%30.21 "Hg10 mi
2:56 pm63 °FPassing clouds.7 mph32%30.24 "Hg10 mi
1:56 pm61 °FPassing clouds.7 mph39%30.28 "Hg10 mi
12:56 pm60 °FPassing clouds.12 mph46%30.31 "Hg10 mi
12:41 pm59 °FScattered clouds.9 mph48%30.31 "Hg10 mi
11:56 am57 °FSunny.8 mph51%30.32 "Hg10 mi
10:56 am52 °FMore clouds than sun.12 mph62%30.33 "Hg10 mi
9:56 am51 °FMostly cloudy.7 mph70%30.32 "Hg10 mi
9:29 am50 °FMore clouds than sun.9 mph71%30.31 "Hg10 mi
Weather by CustomWeather, © 2019

See weather overview